When you browse on this site, cookies collect data to enhance your experience and personalize the content and advertising you see.
Visit our Privacy Policy to learn more. By continuing to use the site, you agree to this use of cookies and data.
  • In Hungary
  • List of Countries
  • For 7 days
  • Water Temperature
  • Satellite Maps
  • Weather Map
  • News
  • Weather Widgets
  • user-avatar
    Login

    Hourly Weather Cesenatico

    Today, 16 January, Wednesday

    Time Temperature Precipitation Wind Pressure Humidity
    00:00 +7°C° 0 mm 3 mps 765 mmHg 57%
    01:00 +7°C° 0 mm 3 mps 765 mmHg 60%
    02:00 +6°C° 0 mm 4 mps 765 mmHg 61%
    03:00 +6°C° 0 mm 4 mps 765 mmHg 62%
    04:00 +6°C° 0 mm 4 mps 765 mmHg 63%
    05:00 +6°C° 0 mm 4 mps 765 mmHg 61%
    06:00 +6°C° 0 mm 5 mps 765 mmHg 58%
    07:00 +6°C° 0 mm 5 mps 765 mmHg 56%
    08:00 +8°C° 0 mm 5 mps 765 mmHg 51%
    09:00 +10°C° 0 mm 4 mps 765 mmHg 46%
    10:00 +11°C° 0 mm 4 mps 765 mmHg 41%
    11:00 +12°C° 0 mm 4 mps 765 mmHg 40%
    12:00 +13°C° 0 mm 4 mps 765 mmHg 38%
    13:00 +14°C° 0 mm 4 mps 765 mmHg 37%
    14:00 +14°C° 0 mm 4 mps 765 mmHg 43%
    15:00 +13°C° 0 mm 3 mps 764 mmHg 48%
    16:00 +12°C° 0 mm 3 mps 764 mmHg 54%
    17:00 +11°C° 0 mm 3 mps 764 mmHg 61%
    18:00 +10°C° 0 mm 2 mps 764 mmHg 69%
    19:00 +9°C° 0 mm 2 mps 764 mmHg 76%
    20:00 +9°C° 0 mm 2 mps 764 mmHg 77%
    21:00 +9°C° 0 mm 3 mps 764 mmHg 78%
    22:00 +9°C° 0 mm 3 mps 764 mmHg 79%
    23:00 +9°C° 0 mm 3 mps 764 mmHg 79%

    Tomorrow, 17 January, Thursday

    Time Temperature Precipitation Wind Pressure Humidity
    00:00 +8°C° 0 mm 4 mps 764 mmHg 78%
    01:00 +8°C° 0 mm 4 mps 764 mmHg 78%
    02:00 +7°C° 0 mm 4 mps 763 mmHg 78%
    03:00 +7°C° 0 mm 4 mps 763 mmHg 77%
    04:00 +7°C° 0 mm 4 mps 763 mmHg 77%
    05:00 +7°C° 0 mm 4 mps 762 mmHg 78%
    06:00 +7°C° 0 mm 4 mps 762 mmHg 79%
    07:00 +7°C° 0 mm 4 mps 762 mmHg 80%
    08:00 +8°C° 0 mm 4 mps 762 mmHg 75%
    09:00 +11°C° 0 mm 4 mps 761 mmHg 71%
    10:00 +12°C° 0 mm 4 mps 761 mmHg 66%
    11:00 +13°C° 0 mm 5 mps 761 mmHg 62%
    12:00 +14°C° 0 mm 5 mps 761 mmHg 58%
    13:00 +15°C° 0 mm 5 mps 760 mmHg 54%
    14:00 +14°C° 0 mm 5 mps 760 mmHg 57%
    15:00 +14°C° 0 mm 5 mps 759 mmHg 59%
    16:00 +13°C° 0 mm 5 mps 759 mmHg 62%
    17:00 +12°C° 0 mm 4 mps 759 mmHg 66%
    18:00 +11°C° 0 mm 4 mps 759 mmHg 70%
    19:00 +10°C° 0 mm 4 mps 759 mmHg 74%
    20:00 +10°C° 0 mm 3 mps 759 mmHg 73%
    21:00 +10°C° 0 mm 3 mps 759 mmHg 72%
    22:00 +10°C° 0 mm 3 mps 759 mmHg 72%
    23:00 +10°C° 0 mm 3 mps 758 mmHg 73%

    Day after tomorrow, 18 January, Friday

    Time Temperature Precipitation Wind Pressure Humidity
    00:00 +10°C° 0 mm 3 mps 758 mmHg 74%
    01:00 +10°C° 0 mm 3 mps 758 mmHg 74%
    02:00 +9°C° 0.1 mm 2 mps 758 mmHg 77%
    03:00 +9°C° 0.1 mm 2 mps 758 mmHg 80%
    04:00 +9°C° 0.1 mm 2 mps 758 mmHg 82%
    05:00 +9°C° 0.1 mm 2 mps 758 mmHg 84%
    06:00 +8°C° 0.1 mm 2 mps 759 mmHg 87%
    07:00 +9°C° 0.1 mm 1 mps 759 mmHg 89%
    08:00 +9°C° 0.2 mm 2 mps 759 mmHg 87%
    09:00 +9°C° 0.2 mm 2 mps 760 mmHg 85%
    10:00 +10°C° 0.2 mm 2 mps 760 mmHg 83%
    11:00 +10°C° 0 mm 2 mps 760 mmHg 81%
    12:00 +12°C° 0 mm 2 mps 760 mmHg 79%
    13:00 +12°C° 0 mm 2 mps 761 mmHg 77%
    14:00 +10°C° 0.3 mm 3 mps 760 mmHg 81%
    15:00 +10°C° 0.3 mm 3 mps 760 mmHg 85%
    16:00 +10°C° 0.3 mm 3 mps 760 mmHg 89%
    17:00 +9°C° 2 mm 3 mps 760 mmHg 91%
    18:00 +8°C° 2 mm 4 mps 760 mmHg 92%
    19:00 +8°C° 2 mm 4 mps 761 mmHg 93%
    20:00 +8°C° 1.3 mm 4 mps 761 mmHg 93%
    21:00 +8°C° 1.3 mm 4 mps 761 mmHg 92%
    22:00 +9°C° 1.3 mm 3 mps 761 mmHg 91%
    23:00 +9°C° 0.2 mm 3 mps 761 mmHg 90%

    19 January, Saturday

    Time Temperature Precipitation Wind Pressure Humidity
    00:00 +8°C° 0.2 mm 3 mps 761 mmHg 89%
    01:00 +8°C° 0.2 mm 2 mps 761 mmHg 88%
    02:00 +8°C° 0.1 mm 3 mps 761 mmHg 88%
    03:00 +7°C° 0.1 mm 3 mps 760 mmHg 87%
    04:00 +7°C° 0.1 mm 3 mps 760 mmHg 86%
    05:00 +7°C° 0 mm 3 mps 760 mmHg 86%
    06:00 +7°C° 0 mm 3 mps 760 mmHg 86%
    07:00 +7°C° 0 mm 3 mps 760 mmHg 85%
    08:00 +7°C° 0 mm 4 mps 760 mmHg 84%
    09:00 +7°C° 0 mm 4 mps 760 mmHg 83%
    10:00 +7°C° 0 mm 5 mps 760 mmHg 82%
    11:00 +7°C° 0 mm 5 mps 760 mmHg 79%
    12:00 +7°C° 0 mm 5 mps 760 mmHg 77%
    13:00 +8°C° 0 mm 5 mps 760 mmHg 74%
    14:00 +7°C° 0 mm 5 mps 760 mmHg 76%
    15:00 +7°C° 0 mm 5 mps 759 mmHg 78%
    16:00 +6°C° 0 mm 5 mps 759 mmHg 80%
    17:00 +5°C° 0 mm 4 mps 759 mmHg 81%
    18:00 +5°C° 0 mm 4 mps 759 mmHg 83%
    19:00 +4°C° 0 mm 3 mps 760 mmHg 85%
    20:00 +4°C° 0 mm 3 mps 760 mmHg 85%
    21:00 +5°C° 0 mm 2 mps 760 mmHg 86%
    22:00 +5°C° 0 mm 2 mps 760 mmHg 86%
    23:00 +5°C° 0 mm 2 mps 760 mmHg 86%

    20 January, Sunday

    Time Temperature Precipitation Wind Pressure Humidity
    00:00 +5°C° 0 mm 2 mps 760 mmHg 86%
    01:00 +4°C° 0 mm 2 mps 760 mmHg 86%
    02:00 +4°C° 0 mm 2 mps 760 mmHg 86%
    03:00 +4°C° 0 mm 2 mps 760 mmHg 86%
    04:00 +4°C° 0 mm 2 mps 760 mmHg 86%
    05:00 +5°C° 0 mm 1 mps 760 mmHg 86%
    06:00 +5°C° 0 mm 1 mps 760 mmHg 86%
    07:00 +5°C° 0 mm 1 mps 761 mmHg 85%
    08:00 +6°C° 0 mm 1 mps 761 mmHg 82%
    09:00 +7°C° 0 mm 1 mps 761 mmHg 78%
    10:00 +8°C° 0 mm 1 mps 762 mmHg 75%
    11:00 +8°C° 0 mm 1 mps 761 mmHg 73%
    12:00 +9°C° 0 mm 1 mps 761 mmHg 71%
    13:00 +9°C° 0 mm 2 mps 761 mmHg 69%
    14:00 +9°C° 0 mm 2 mps 761 mmHg 71%
    15:00 +8°C° 0 mm 2 mps 761 mmHg 74%
    16:00 +8°C° 0 mm 2 mps 761 mmHg 76%
    17:00 +8°C° 0 mm 2 mps 762 mmHg 78%
    18:00 +9°C° 0 mm 1 mps 762 mmHg 80%
    19:00 +8°C° 0 mm 1 mps 762 mmHg 83%
    20:00 +8°C° 0.1 mm 1 mps 763 mmHg 83%
    21:00 +8°C° 0.1 mm 1 mps 763 mmHg 84%
    22:00 +8°C° 0.1 mm 1 mps 763 mmHg 85%
    23:00 +7°C° 0.1 mm 2 mps 763 mmHg 85%

    21 January, Monday

    Time Temperature Precipitation Wind Pressure Humidity
    00:00 +7°C° 0.1 mm 2 mps 763 mmHg 86%
    01:00 +7°C° 0.1 mm 2 mps 763 mmHg 87%
    02:00 +7°C° 0.2 mm 3 mps 763 mmHg 84%
    03:00 +7°C° 0.2 mm 4 mps 763 mmHg 82%
    04:00 +7°C° 0.2 mm 5 mps 763 mmHg 80%
    05:00 +7°C° 0 mm 5 mps 763 mmHg 79%
    06:00 +7°C° 0 mm 6 mps 763 mmHg 77%
    07:00 +7°C° 0 mm 6 mps 764 mmHg 76%
    08:00 +7°C° 0 mm 6 mps 764 mmHg 75%
    09:00 +7°C° 0 mm 6 mps 764 mmHg 74%
    10:00 +6°C° 0 mm 7 mps 765 mmHg 73%
    11:00 +6°C° 0.1 mm 7 mps 765 mmHg 73%
    12:00 +6°C° 0.1 mm 7 mps 764 mmHg 72%
    13:00 +6°C° 0.1 mm 7 mps 764 mmHg 72%
    14:00 +6°C° 0.1 mm 7 mps 764 mmHg 72%
    15:00 +7°C° 0.1 mm 6 mps 764 mmHg 72%
    16:00 +7°C° 0.1 mm 6 mps 764 mmHg 72%
    17:00 +6°C° 0 mm 7 mps 764 mmHg 73%
    18:00 +6°C° 0 mm 7 mps 764 mmHg 74%
    19:00 +6°C° 0 mm 7 mps 764 mmHg 75%
    20:00 +6°C° 0 mm 7 mps 764 mmHg 75%
    21:00 +6°C° 0 mm 7 mps 764 mmHg 75%
    22:00 +6°C° 0 mm 7 mps 765 mmHg 75%
    23:00 +5°C° 0.1 mm 7 mps 764 mmHg 76%
    Show more